Location: Tierra del Sol
(32.6128°N, 116.3319°W)
Time: 06:12:36
(UTC-07:00)

Daily predictions for brighter satellites

Satellite Brightness Start Highest point End
(mag) Time Altitude Azimuth Time Altitude Azimuth Time Altitude Azimuth
USA 229 DEB 3.8 20:17:47 10° SSW 20:24:41 88° ESE 20:31:42 10° NNE
USA 229 3.8 20:17:53 10° SSW 20:24:48 87° ESE 20:31:48 10° NNE
H-2A R/B 3.6 20:23:10 10° ESE 20:26:39 22° ENE 20:30:08 10° NNE
CZ-2D R/B 3.3 20:23:58 10° SSE 20:27:51 90° W 20:31:44 10° NNW
ATLAS CENTAUR R/B 1.8 20:23:48 10° NW 20:28:11 63° WSW 20:32:09 10° SSE
Cosmos 1437 Rocket 4.0 20:26:56 10° NNE 20:30:03 23° ENE 20:33:12 10° SE
Cosmos 2026 Rocket 4.4 20:25:18 10° SSW 20:31:21 69° W 20:37:30 10° N
Cosmos 1328 Rocket 3.9 20:27:06 10° N 20:31:24 47° E 20:35:40 10° SSE
Cosmos 968 Rocket 4.2 20:31:50 10° SSW 20:36:55 58° WNW 20:42:04 10° N
Cosmos 2221 4.5 20:39:08 10° NNW 20:42:52 30° W 20:46:36 10° SSW
Cosmos 1743 Rocket 3.9 20:39:30 10° SSW 20:43:57 73° W 20:48:25 10° N
NOSS 3-1 (A) 4.2 20:39:58 10° SSE 20:44:41 26° ESE 20:49:40 10° NE
Cosmos 1500 Rocket 3.5 20:45:13 10° S 20:49:34 85° E 20:53:59 10° N
Meteor 1-21 Rocket 4.2 20:44:27 10° S 20:50:00 88° W 20:55:33 10° N
Cosmos 1437 3.8 20:47:47 12° SSE 20:50:17 28° E 20:53:09 10° NNE
Cosmos 2228 Rocket 3.6 20:51:39 10° NNW 20:56:05 63° W 21:00:33 10° S
S3M 4.1 20:57:11 10° N 21:03:17 78° W 21:09:25 10° S
Envisat 3.4 20:59:40 15° SE 21:03:36 47° ENE 21:08:28 10° N
ERS-1 Rocket 2.9 20:59:25 10° SSE 21:04:27 86° ENE 21:09:30 10° NNW
Cosmos 1441 Rocket 4.4 21:01:21 10° SSW 21:04:57 43° W 21:08:33 10° N
Delta 2 Rocket 3.6 21:01:56 10° W 21:05:35 53° N 21:08:56 10° ENE
ATLAS 2AS CENTAUR R/B 4.1 21:05:37 16° ESE 21:07:07 17° ESE 21:11:40 10° ENE
Cosmos 2219 3.2 21:02:12 10° S 21:07:51 63° ESE 21:13:31 10° NNE
deb Chang Zheng 4 3.7 21:06:37 10° N 21:10:58 76° WNW 21:15:17 10° SSW
Cosmos 2151 2.8 21:11:28 10° S 21:15:32 72° E 21:19:44 10° N
SL-14 R/B 4.5 21:15:31 23° ESE 21:16:10 24° E 21:19:23 10° NE
USA 186 4.3 21:17:20 10° WSW 21:17:58 11° W 21:18:36 10° W
Sakura Rocket 4.4 21:17:18 10° SSW 21:19:22 17° S 21:19:22 17° S
Cosmos 2112 Rocket 4.4 21:16:01 10° N 21:21:05 47° ENE 21:23:46 25° SE
Cosmos 2322 3.8 21:15:53 10° NNW 21:21:34 64° ENE 21:25:00 24° SE
Cosmos 2322 Rocket 3.4 21:16:44 10° NW 21:21:53 38° WSW 21:27:01 10° S
Cosmos 1515 Rocket 4.3 21:18:19 10° NNW 21:22:37 52° W 21:26:51 10° S
Cosmos 1937 Rocket 4.5 21:21:29 24° ESE 21:22:45 27° E 21:27:04 10° NE
Cosmos 2298 Rocket 4.2 21:20:10 13° S 21:24:38 49° ESE 21:29:45 10° NNE
CZ-4 SHROUD 3.6 21:24:12 38° ESE 21:24:48 44° ENE 21:27:48 10° N
Sich 1 3.9 21:25:44 28° ESE 21:26:43 31° E 21:30:37 10° NNE
Aureole 3 4.4 21:21:24 10° S 21:28:25 81° E 21:34:04 10° N
MetOp-B 4.4 21:26:17 26° SE 21:29:08 52° ENE 21:34:19 10° N
Cosmos 2058 2.9 21:28:15 27° SSE 21:30:16 61° E 21:34:19 10° NNE
Cosmos 1633 Rocket 3.8 21:29:42 30° ESE 21:30:29 32° E 21:34:24 10° NNE
Cosmos 2360 Rocket 2.1 21:25:14 10° NNW 21:30:54 80° ENE 21:34:08 27° SSE
NOSS 3-1 (C) 3.3 21:25:12 10° SSW 21:30:56 89° ESE 21:37:14 10° NNE
Cosmos 1908 3.7 21:28:06 10° NNW 21:31:57 59° W 21:34:30 20° SSW
SL-16 R/B 3.6 21:28:28 10° NW 21:33:28 33° WSW 21:38:26 10° SSW
Cosmos 883 Rocket 4.4 21:27:46 10° N 21:34:00 90° W 21:38:34 19° S
Cosmos 1674 4.2 21:31:37 10° SSW 21:35:10 36° W 21:38:45 10° NNW
DELTA 2 R/B (1) 3.7 21:30:10 10° WNW 21:35:43 71° NNE 21:38:52 26° E
OAO 2 Rocket 3.3 21:32:27 10° WSW 21:37:46 80° SSE 21:42:20 14° ENE
Cosmos 405 3.7 21:34:38 10° NNW 21:38:10 52° W 21:39:58 25° SSW
Cosmos 1151 Rocket 3.4 21:34:56 10° NNW 21:39:11 60° W 21:41:55 21° SSW
OTV 4 2.0 21:39:51 10° SW 21:41:17 25° SW 21:41:17 25° SW
Cosmos 1805 Rocket 3.5 21:43:27 26° S 21:45:58 87° W 21:50:26 10° N
Tiangong 1 3.0 21:43:18 10° W 21:46:06 30° NNW 21:48:54 10° NE
YAOGAN 6 2.6 21:47:15 58° ESE 21:47:38 62° ENE 21:51:13 10° N
H-2A R/B 3.5 21:48:41 22° E 21:49:48 23° ENE 21:53:58 10° NNE
CZ-4 R/B 3.9 21:46:24 10° NNE 21:51:14 57° E 21:52:31 43° SSE
Cosmos 1300 2.6 21:48:54 10° N 21:52:42 62° E 21:52:56 61° ESE
Cosmos 2227 Rocket 2.7 21:53:14 36° ESE 21:53:34 36° ESE 21:58:41 10° NE
CZ-4B R/B 3.5 21:48:30 10° NNE 21:53:47 89° ESE 21:56:59 24° SSW
Meteor 1-11 4.2 21:50:02 21° S 21:54:03 89° ESE 21:59:50 10° N
Cosmos 1680 Rocket 3.8 21:52:21 10° NNW 21:57:32 62° WSW 21:59:52 32° S
Hubble Space Telescope 3.0 21:55:19 10° SW 21:56:00 14° SW 21:56:00 14° SW
SPOT 1/Viking Rocket 3.4 22:00:26 46° SSE 22:01:57 76° ENE 22:07:06 10° N
H-2A R/B 3.9 21:59:24 14° SSW 22:02:27 27° W 22:06:19 10° NW
Cosmos 2315 Rocket 4.1 21:57:18 10° N 22:03:29 73° W 22:06:50 29° S
Cosmos 1898 Rocket 3.6 22:02:06 20° SSW 22:05:44 75° WNW 22:10:57 10° NNE
Cosmos 1666 Rocket 3.8 22:07:02 38° SSW 22:08:32 65° W 22:12:56 10° N
Cosmos 220 Rocket 3.8 22:08:18 72° SSE 22:08:38 77° ESE 22:13:04 10° NNE
Cosmos 1241 Rocket 4.4 22:06:43 35° S 22:09:16 62° ESE 22:15:24 10° NE
Cosmos 1707 Rocket 3.5 22:05:03 10° N 22:09:25 79° W 22:10:06 62° SSW
Cosmos 2333 Rocket 3.3 22:07:16 10° N 22:12:16 30° ENE 22:13:18 28° E
SL-16 R/B 4.5 22:11:02 10° NE 22:12:19 11° NE 22:13:36 10° ENE
Cosmos 2150 Rocket 4.5 22:08:56 15° SSW 22:13:22 63° WNW 22:18:48 10° N
SPOT 5 3.9 22:11:50 26° SW 22:13:41 37° W 22:18:04 10° NNW
Cosmos 1455 4.2 22:12:09 10° NNE 22:13:51 19° NE 22:13:51 19° NE
Cosmos 2297 Rocket 2.7 22:21:13 41° E 22:21:13 41° E 22:25:52 10° NE
Cosmos 1470 Rocket 3.9 22:22:50 53° NE 22:22:50 53° NE 22:26:24 10° NNE
Cosmos 1933 Rocket 3.9 22:23:56 56° NE 22:23:56 56° NE 22:27:44 10° NNE
ARGOS 3.1 22:22:33 55° S 22:23:45 80° WSW 22:29:10 10° NNW
COSMOS 2428 2.7 22:18:27 10° NNW 22:24:08 76° WSW 22:25:19 56° S
Nadezhda 1 Rocket 4.1 22:20:13 10° N 22:26:11 53° E 22:26:56 50° ESE
CZ-3A R/B 3.5 22:09:55 10° W 22:27:44 45° SSW 22:28:13 44° S
Cosmos 2219 Rocket 2.3 22:26:21 10° NNW 22:31:53 59° ENE 22:32:19 57° E
Cosmos 1726 3.2 22:29:32 10° NNW 22:32:48 43° WNW 22:32:48 43° WNW
Cosmos 1745 Rocket 3.9 22:31:50 48° SSW 22:33:45 84° W 22:39:58 10° N
CZ-4C R/B 4.4 22:35:43 36° N 22:35:43 36° N 22:37:53 10° N
Cosmos 1709 Rocket 4.3 22:42:19 46° E 22:42:19 46° E 22:47:52 10° NNE
DMSP B5D2-2 3.9 22:37:09 10° NNE 22:42:19 82° E 22:42:19 82° E
Landsat 7 3.8 22:44:50 76° WNW 22:44:50 76° WNW 22:49:21 10° NNW
Cosmos 292 Rocket 4.0 22:43:32 10° NNW 22:47:49 67° WNW 22:47:49 67° WNW
NOSS 0 Rocket 3.8 22:42:41 10° NNW 22:48:51 73° ENE 22:49:19 69° ESE
USA 32 4.4 22:44:31 10° NNW 22:49:39 55° W 22:50:14 52° WSW
Cosmos 1980 3.8 22:45:30 10° NNW 22:51:01 61° ENE 22:51:01 61° ENE
Cosmos 1271 Rocket 4.1 22:47:49 10° NNW 22:50:33 36° NW 22:50:33 36° NW
ATLAS 2AS CENTAUR R/B 3.0 22:52:53 29° SW 22:57:04 80° WNW 23:05:04 10° NNE
Cosmos 1386 Rocket 4.4 22:57:20 63° SW 22:58:09 73° W 23:04:09 10° N
Terra 2.2 23:01:11 62° NW 23:01:11 62° NW 23:05:13 10° NNW
Cosmos 2082 4.3 23:01:36 41° WSW 23:03:10 54° WNW 23:08:47 10° N
Cosmos 2237 Rocket 2.3 22:57:57 10° NNW 23:03:21 70° NE 23:03:21 70° NE
Spot 4 4.3 23:05:42 60° N 23:05:42 60° N 23:09:40 10° NNW
Lacrosse 4 Rocket 3.6 23:03:41 10° N 23:06:05 20° NE 23:06:05 20° NE
Cosmos 1626 4.3 23:10:26 26° NW 23:10:26 26° NW 23:12:28 10° NNW
Cosmos 2181 Rocket 4.2 23:07:57 10° N 23:13:59 58° ENE 23:13:59 58° ENE
ATLAS 3B R/B 3.3 23:11:12 10° NNW 23:17:42 41° NE 23:18:29 40° ENE
OAO 2 Rocket 4.2 23:17:29 10° W 23:21:19 46° WNW 23:21:19 46° WNW
FALCON 9 R/B 3.1 23:08:23 10° W 23:28:21 82° N 23:30:02 56° E
H-2A R/B 3.2 23:29:19 36° W 23:29:19 36° W 23:33:53 10° NNW
COSMOS 2455 3.2 23:31:10 10° NNW 23:36:29 57° NNE 23:36:29 57° NNE
Cosmos 2227 Rocket 4.0 23:34:58 18° W 23:37:37 25° WNW 23:42:16 10° N
SeaSat 1 3.7 23:49:07 37° NNE 23:49:07 37° NNE 23:52:29 10° NNW
